This demonstration page uses our WeatherBlox Daily Observations layout. Learn more.

Left ArrowRight Arrow

30.21309, -93.2044

Hourly Observations for May 16, 2022

Temp ( °F °C ) Dew Point ( °F °C ) Humidity (%) Winds ( mph kmh ) Pressure ( in mb ) Visibility ( mi km ) Precip ( " mm )
12:15 am 00:15 Clear 77 25 72 22.1 84 84 SW 5 7 29.95 1014 10 16 0.00 0.00
12:35 am 00:35 Clear 77 24.8 72 22 84 84 SW 6 9 29.94 1014 10 16 0.00 0.00
12:55 am 00:55 Clear 77 24.8 72 22 84 84 SSW 5 7 29.94 1014 10 16 0.00 0.00
1:15 am 01:15 Clear 76 24.6 72 22.1 86 86 SW 8 13 29.93 1014 10 16 0.00 0.00
1:35 am 01:35 Clear 76 24.5 72 22.1 87 87 WSW 6 9 29.94 1014 10 16 0.00 0.00
1:55 am 01:55 Clear 76 24.7 72 22.1 86 86 WNW 6 9 29.95 1014 10 16 0.00 0.00
2:15 am 02:15 Clear 77 25.2 72 22.1 83 83 SW 5 7 29.95 1014 10 16 0.00 0.00
2:35 am 02:35 Clear 77 24.8 71 21.9 84 84 SW 5 7 29.94 1014 10 16 0.00 0.00
2:55 am 02:55 Clear 77 25 71 21.9 83 83 W 6 9 29.96 1015 10 16 0.00 0.00
3:15 am 03:15 Clear 77 24.9 71 21.8 83 83 W 7 11 29.97 1015 10 16 0.00 0.00
3:35 am 03:35 Partly Cloudy 77 25.2 72 22 82 82 WNW 13 20 29.98 1015 10 16 0.00 0.00
3:55 am 03:55 Partly Cloudy 77 25.1 72 22 83 83 WNW 12 19 29.97 1015 10 16 0.00 0.00
4:15 am 04:15 Partly Cloudy 77 25 71 21.7 82 82 W 8 13 29.96 1015 10 16 0.00 0.00
4:35 am 04:35 Clear 77 24.8 71 21.6 82 82 W 9 15 29.95 1014 10 16 0.00 0.00
4:55 am 04:55 Clear 76 24.7 71 21.5 82 82 W 6 9 29.95 1014 10 16 0.00 0.00
5:15 am 05:15 Clear 76 24.6 71 21.5 83 83 W 8 13 29.95 1014 10 16 0.00 0.00
5:35 am 05:35 Clear 76 24.7 70 21.3 81 81 W 9 15 29.94 1014 10 16 0.00 0.00
6:00 am 06:00 Mostly Clear 75 24 70 21 83 83 W 8 13 29.96 1015 10 16 0.00 0.00
6:53 am 06:53 Mostly Sunny 75 24 70 21 83 83 SW 7 11 29.93 1014 10 16 0.00 0.00
7:55 am 07:55 Mostly Sunny 77 25 72 22 83 83 SW 12 19 29.93 1014 10 16 0.00 0.00
8:53 am 08:53 Partly Cloudy 81 27 70 21 70 70 S 12 19 29.93 1014 10 16 0.00 0.00
9:45 am 09:45 Partly Cloudy 82 28 70 21 66 66 SW 10 17 29.94 1014 10 16 0.00 0.00
10:45 am 10:45 Mostly Sunny 86 30 70 21 59 59 S 8 13 29.96 1015 10 16 0.00 0.00
11:53 am 11:53 Mostly Sunny 88 31 70 21 55 55 WSW 14 22 29.97 1015 10 16 0.00 0.00
12:45 pm 12:45 Mostly Sunny 90 32 66 19 46 46 SW 8 13 29.96 1015 10 16 0.00 0.00
1:47 pm 13:47 Mostly Sunny 91 33 68 20 46 46 WSW 12 19 29.93 1014 10 16 0.00 0.00
2:47 pm 14:47 Mostly Sunny 91 33 66 19 44 44 WNW 14 22 29.93 1014 10 16 0.00 0.00
3:45 pm 15:45 Mostly Sunny 91 33 66 19 44 44 W 13 20 29.92 1013 10 16 0.00 0.00
4:47 pm 16:47 Mostly Sunny 90 32 66 19 46 46 WNW 12 19 29.91 1013 10 16 0.00 0.00
5:47 pm 17:47 Mostly Sunny 90 32 66 19 46 46 W 7 11 29.90 1012 10 16 0.00 0.00
6:50 pm 18:50 Mostly Sunny 90 32 66 19 46 46 W 9 15 29.90 1012 10 16 0.00 0.00
7:58 pm 19:58 Mostly Sunny 82 28 73 23 74 74 SSW 12 19 29.92 1013 10 16 0.00 0.00
8:47 pm 20:47 Mostly Clear 81 27 73 23 79 79 SSW 10 17 29.93 1014 10 16 0.00 0.00
9:47 pm 21:47 Mostly Clear 81 27 73 23 79 79 SW 8 13 29.95 1014 10 16 0.00 0.00
10:15 pm 22:15 Clear 80 26.5 73 22.6 79 79 SW 8 13 29.96 1015 10 16 0.00 0.00
10:35 pm 22:35 Clear 80 26.5 73 22.6 79 79 SW 8 13 29.96 1015 10 16 0.00 0.00
10:55 pm 22:55 Clear 80 26.4 73 22.7 80 80 SW 10 17 29.96 1015 10 16 0.00 0.00
11:15 pm 23:15 Clear 79 26.3 73 22.8 81 81 SW 7 11 29.96 1015 10 16 0.00 0.00
11:35 pm 23:35 Clear 79 26 73 22.8 83 83 WSW 7 11 29.96 1015 10 16 0.00 0.00
11:55 pm 23:55 Clear 79 26.2 73 22.9 82 82 WSW 9 15 29.96 1015 10 16 0.00 0.00

Powered by AerisWeather